This is the latest recevied weather packets stored in our database for station/object YO8SDE-8. If no packets are shown the sender has not sent any weather packets the latest 10 day(s).
| Time | Temp. | Humidity | Pressure | Rain* | Wind** | Luminosity | Snow |
|---|---|---|---|---|---|---|---|
| 1777143638 | 10° C | 61% | 997.4 hPa | 0 mm | - | - | - |
| 1777143338 | 10.56° C | 59% | 997.6 hPa | 0 mm | - | - | - |
| 1777143038 | 10.56° C | 58% | 997.4 hPa | 0 mm | - | - | - |
| 1777142738 | 10.56° C | 58% | 997.5 hPa | 0 mm | - | - | - |
| 1777142438 | 11.11° C | 57% | 997.6 hPa | 0 mm | - | - | - |
| 1777142138 | 11.11° C | 57% | 997.5 hPa | 0 mm | - | - | - |
| 1777141838 | 11.11° C | 57% | 997.4 hPa | 0 mm | - | - | - |
| 1777141538 | 11.11° C | 57% | 997.4 hPa | 0 mm | - | - | - |
| 1777141238 | 11.11° C | 56% | 997.5 hPa | 0 mm | - | - | - |
| 1777140938 | 11.67° C | 56% | 997.4 hPa | 0 mm | - | - | - |
| 1777140638 | 11.67° C | 55% | 997.5 hPa | 0 mm | - | - | - |
| 1777140338 | 12.22° C | 54% | 997.4 hPa | 0 mm | - | - | - |
| 1777140038 | 12.22° C | 53% | 997.4 hPa | 0 mm | - | - | - |
| 1777139738 | 12.78° C | 51% | 997.4 hPa | 0 mm | - | - | - |
| 1777139438 | 12.78° C | 51% | 997.3 hPa | 0 mm | - | - | - |
| 1777139138 | 12.78° C | 50% | 997.1 hPa | 0 mm | - | - | - |
| 1777138838 | 13.33° C | 49% | 997.4 hPa | 0 mm | - | - | - |
| 1777138538 | 13.89° C | 49% | 997.3 hPa | 0 mm | - | - | - |
| 1777138238 | 14.44° C | 47% | 997.3 hPa | 0 mm | - | - | - |
| 1777137938 | 14.44° C | 47% | 997.1 hPa | 0 mm | - | - | - |
| 1777137638 | 15° C | 47% | 997.3 hPa | 0 mm | - | - | - |
| 1777137338 | 15.56° C | 45% | 997.2 hPa | 0 mm | - | - | - |
| 1777137038 | 16.11° C | 45% | 997.2 hPa | 0 mm | - | - | - |
| 1777136738 | 16.67° C | 43% | 997.2 hPa | 0 mm | - | - | - |
| 1777136438 | 17.22° C | 42% | 997.2 hPa | 0 mm | - | - | - |
* Rain latest hour (hover to see other rain measurements)
** Current wind speed in m/s (hover to see current wind gust speed)